{"data":{"norad_id":58440,"intl_designator":"2023-183D","name":"STARLINK-30950","alt_names":[],"object_type":"PAYLOAD","status":"ACTIVE","operator":null,"country":"US","launch_date":"2023-11-28","launch_site_code":"AFETR","launch_vehicle":null,"mission":null,"orbit_class":"UNKNOWN","rcs_meters":null,"size_class":null,"mass_kg":null,"dimensions":null,"purposes":["comms"],"wikipedia_slug":null,"has_3d_model":false,"image_url":null,"decayed_at":null,"tle_current":{"epoch":"2026-05-24T23:58:28.586208Z","epoch_age_seconds":71218,"freshness":"FRESH","line1":"1 58440U 23183D   26144.99894197  .00002912  00000+0  11528-3 0  9994","line2":"2 58440  43.0005 134.1723 0001470 277.2183  82.8502 15.27591590140709","mean_motion":15.2759159,"eccentricity":0.000147,"inclination_deg":43.0005,"raan_deg":134.1723,"arg_perigee_deg":277.2183,"mean_anomaly_deg":82.8502,"bstar":0.00011528,"rev_number":14070,"period_min":94.266033501795,"perigee_km":482.00580237503,"apogee_km":484.02298088416,"semimajor_km":6861.1513916296,"source":"CELESTRAK","updated_at":"2026-05-25T13:38:18.622303Z"}}}